Regional Weather Roundup
Issued by NWS Northern Indiana

Home | Current Version | Previous Version | Graphics & Text | Print | Product List | Glossary On
Versions: 1 2 3 4 5 6 7 8 9 10 11 12 13 14 15 16 17 18 19 20 21 22 23 24 25 26 27 28 29 30 31 32 33 34 35 36 37 38 39 40 41 42 43 44 45 46 47 48 49 50
000
ASUS43 KIWX 180010
RWRIWX

KIWX WEATHER ROUNDUP
NATIONAL WEATHER SERVICE NORTHERN INDIANA
800 PM EDT THU APR 17 2014

NOTE: "FAIR" INDICATES FEW OR NO CLOUDS BELOW 12,000 FEET WITH NO
SIGNIFICANT WEATHER AND/OR OBSTRUCTIONS TO VISIBILITY.

* THESE STATIONS ARE NOT UNDER NWS QUALITY CONTROL. THEY ALSO MAY NOT
  REPORT WEATHER SUCH AS PRECIPITATION OR FOG.

INZ001>027-180100-
NORTHERN INDIANA

CITY           SKY/WX    TMP DP  RH WIND       PRES   REMARKS
GARY*          CLOUDY    61  36  39 W10       30.21R
VALPARAISO     CLOUDY    58  38  47 W10       30.21S
6HR MIN TEMP:  58; 6HR MAX TEMP:  64;

MICHIGAN CITY* CLOUDY    54  34  47 NW3       30.22S
LAPORTE*       CLOUDY    59  36  41 W7        30.21S
6HR MIN TEMP:  59; 6HR MAX TEMP:  64;

SOUTH BEND     CLOUDY    62  36  37 W12       30.22S
6HR MIN TEMP:  62; 6HR MAX TEMP:  67;

ELKHART*       CLEAR     61  34  36 SW9       30.21
GOSHEN         PTCLDY    60  38  43 SW7       30.21S
6HR MIN TEMP:  60; 6HR MAX TEMP:  66;

MONTICELLO*    MOCLDY    61  38  41 SW7       30.21S
6HR MIN TEMP:  61; 6HR MAX TEMP:  65;

LOGANSPORT*    MOCLDY    59  37  44 SW8       30.23S
ROCHESTER*     PTCLDY    63  36  36 SW6       30.22S
WARSAW*        PTCLDY    61  36  39 SW5       30.22S
FORT WAYNE     MOCLDY    60  33  36 W8        30.24S
6HR MIN TEMP:  60; 6HR MAX TEMP:  67;

HUNTINGTON*    FAIR      61  34  36 W5        30.23R
6HR MIN TEMP:  61; 6HR MAX TEMP:  65;

PERU/GRISSOM   MOCLDY    59  40  48 SW9       30.23R
6HR MIN TEMP:  59; 6HR MAX TEMP:  67;

MARION*        MOCLDY    61  33  35 SW7       30.24S
6HR MIN TEMP:  15; 6HR MAX TEMP:  77;


$$
INZ028>050-180100-
CENTRAL INDIANA

CITY           SKY/WX    TMP DP  RH WIND       PRES   REMARKS
LAFAYETTE      MOCLDY    61  35  37 SW6       30.23R
6HR MIN TEMP:  61; 6HR MAX TEMP:  66;

KOKOMO*        MOCLDY    61  36  39 SW12      30.24R
6HR MIN TEMP:  61; 6HR MAX TEMP:  66;

MUNCIE*        MOCLDY    62  33  33 S10       30.24R
6HR MIN TEMP:  62; 6HR MAX TEMP:  66;

INDIANAPOLIS   MOCLDY    58  36  43 W8        30.25R
6HR MIN TEMP:  58; 6HR MAX TEMP:  65;


$$
MIZ043>046-050>051-056>058-064>065-071>073-077>080-180100-
SOUTHWEST LOWER MICHIGAN

CITY           SKY/WX    TMP DP  RH WIND       PRES   REMARKS
BATTLE CREEK   MOCLDY    60  36  40 W8        30.21R
6HR MIN TEMP:  60; 6HR MAX TEMP:  65;

BENTON HARBOR  CLOUDY    54  36  50 CALM      30.21S
6HR MIN TEMP:  54; 6HR MAX TEMP:  60;

COLDWATER*     PTCLDY    58  32  37 SW7       30.21S
6HR MIN TEMP:  58; 6HR MAX TEMP:  63;

HILLSDALE*     PTCLDY    61  31  31 SW5       30.22R
HOLLAND        MOCLDY    51  35  54 W5        30.22S
6HR MIN TEMP:  51; 6HR MAX TEMP:  59;

GRAND RAPIDS   CLOUDY    56  37  49 W10       30.21R
6HR MIN TEMP:  56; 6HR MAX TEMP:  65;

KALAMAZOO      MOCLDY    59  36  42 W8        30.21R
6HR MIN TEMP:  59; 6HR MAX TEMP:  67;

STURGIS*       PTCLDY    57  39  51 SW9       30.21S
THREE RIVERS*  FAIR      61  34  36 SW8       30.21R
6HR MIN TEMP:  61; 6HR MAX TEMP:  66;


$$
OHZ001>008-015>018-024>025-180100-
NORTHWEST OHIO

CITY           SKY/WX    TMP DP  RH WIND       PRES   REMARKS
WAUSEON*       FAIR      63  30  29 SW6       30.23R
DEFIANCE       PTCLDY    64  30  27 SW5       30.23S
6HR MIN TEMP:  63; 6HR MAX TEMP:  69;

FINDLAY        MOCLDY    59  38  45 S10       30.24S
6HR MIN TEMP:  59; 6HR MAX TEMP:  66;

TOLEDO EXPRESS CLEAR     63  29  27 SW10      30.23S
6HR MIN TEMP:  62; 6HR MAX TEMP:  67;

TOLEDO METCALF PTCLDY    63  32  31 SW9       30.24S
6HR MIN TEMP:  63; 6HR MAX TEMP:  68;

LIMA           PTCLDY    63  33  32 SW6       30.25S
6HR MIN TEMP:  62; 6HR MAX TEMP:  67;


$$
&&



USA.gov is the U.S. government's official web portal to all federal, state and local government web resources and services.